Regional Weather Roundup
Issued by NWS

Home | Current Version | Previous Version | Text Only | Print | Product List | Glossary On
Versions: 1 2 3 4 5 6 7 8 9 10 11 12 13 14 15 16 17 18 19 20 21 22 23 24 25 26 27 28 29 30 31 32 33 34 35 36 37 38 39 40 41 42 43 44 45 46 47 48 49 50
000
ASUS43 KMKX 241021
RWRWI

WISCONSIN REGIONAL WEATHER ROUNDUP
NATIONAL WEATHER SERVICE MILWAUKEE/SULLIVAN WI
400 AM CST MON NOV 24 2014

NOTE: "FAIR" INDICATES FEW OR NO CLOUDS BELOW 12,000 FEET WITH NO
SIGNIFICANT WEATHER AND/OR OBSTRUCTIONS TO VISIBILITY.

WIZ001-002-006>008-014>016-023>028-241100-
NORTHWEST WISCONSIN

CITY           SKY/WX    TMP DP  RH WIND       PRES   REMARKS
SUPERIOR ARPT  RAIN      35  32  91 NW9       29.24F WCI  27
ASHLAND        LGT SNOW  34  33  96 NW8       29.19F FOG     WCI  27
HAYWARD        LGT SNOW  33  31  92 VRB6      29.18F VSB 1   WCI  28
SIREN          LGT SNOW  33  33  99 NW9       29.24F WCI  25
CUMBERLAND     LGT SNOW  32  32 100 N16       29.20F WCI  21
RICE LAKE      FLURRIES  33  33  99 NW8       29.21F WCI  26
CHETEK         LGT SNOW  32  32 100 NW7       29.19S WCI  26
LADYSMITH      CLOUDY    35  34  98 NW14      29.16F FOG     WCI  25
EAU CLAIRE     MIX PCPN  35  32  88 NW10G20   29.18S WCI  27
MENOMONIE      LGT RAIN  35  34  94 NW15      29.21S WCI  26
NEW RICHMOND   CLOUDY    32  32 100 NW12G20   29.25S WCI  23
OSCEOLA        CLOUDY    33  33 100 NW12      29.29S WCI  24
$$

WIZ003>005-009-010-017-018-241100-
NORTH CENTRAL WISCONSIN

CITY           SKY/WX    TMP DP  RH WIND       PRES   REMARKS
MANITOWISH WTR DRIZZLE   35  35 100 NW8       29.09F WCI  28
ARBOR VITAE    LGT RAIN  37  36  96 N8        29.08F WCI  30
WOODRUFF       LGT RAIN  37  36  96 N8        29.08F WCI  30
RHINELANDER    LGT RAIN  37  37 100 NW7       29.07S FOG     WCI  32
EAGLE RIVER    RAIN      37  37 100 NW7       29.05F WCI  32
LAND O LAKES   DRIZZLE   38  38 100 NW6       29.07S WCI  33
PHILLIPS       DRIZZLE   34  34 100 NW6       29.11F WCI  29
TOMAHAWK       RAIN      37  36  97 NW7       29.09R WCI  31
MEDFORD        DRIZZLE   36  36 100 NW10      29.09S WCI  28
MERRILL        LGT RAIN  40  40 100 NW5       29.06F
$$

WIZ029-030-035-036-043>047-241100-
CENTRAL WISCONSIN

CITY           SKY/WX    TMP DP  RH WIND       PRES   REMARKS
WAUSAU         LGT RAIN  41  40  96 NW6       29.04F FOG
MOSINEE        LGT RAIN  39  39 100 NW8       29.06F WCI  34
MARSHFIELD     CLOUDY    39  37  92 NW14      29.08F WCI  31
STEVENS POINT  DRIZZLE   40  40 100 NW3       29.06F
WAUPACA        DRIZZLE   43  42  95 CALM      29.05S
WAUTOMA        CLOUDY    43  43 100 W6        29.05F FOG
WISC RAPIDS    CLOUDY    41  39  93 NW10      29.08F
CAMP DOUGLAS   DRIZZLE   39  39 100 W15       29.11R WCI  31
$$

WIZ011>013-019>022-031-037>040-048>050-241100-
NORTHEAST WISCONSIN

CITY           SKY/WX    TMP DP  RH WIND       PRES   REMARKS
ANTIGO         DRIZZLE   38  38 100 NW7       29.04S WCI  33
SHAWANO        DRIZZLE   42  41  95 CALM      29.04S
OCONTO         CLOUDY    40  40 100 NW3       29.01F
STURGEON BAY   CLOUDY    43  39  87 NW6       29.00F VSB 1
GREEN BAY      LGT RAIN  41  40  96 W5        29.02F FOG
MANITOWOC      LGT RAIN  43  43 100 W5        29.01F
APPLETON       FOG       39  39 100 W7        29.04S VSB 1/4 WCI  34
CLINTONVILLE   LGT RAIN  41  41 100 NW3       29.04S
OSHKOSH        LGT RAIN  42  41  96 NW5       29.03F FOG
$$

WIZ032>034-041-042-053>061-241100-
SOUTHWEST WISCONSIN

CITY           SKY/WX    TMP DP  RH WIND       PRES   REMARKS
LA CROSSE      LGT RAIN  37  36  96 NW17      29.17S WCI  27
SPARTA         DRIZZLE   38  37  97 W9        29.15S WCI  31
VIROQUA        CLOUDY    36  36 100 NW15G22   29.13F WCI  27
BOSCOBEL       CLOUDY    41  36  82 VRB6      29.15F
PRAIRIE DU CHI CLOUDY    36  33  90 W13G18    29.18S FOG     WCI  27
PLATTEVILLE    CLOUDY    38  38  97 NW18G25   29.13S WCI  29
$$

WIZ056-057-062-063-064-067-068-241100-
SOUTH CENTRAL WISCONSIN

CITY           SKY/WX    TMP DP  RH WIND       PRES   REMARKS
REEDSBURG      DRIZZLE   38  38  99 W9G16     29.09S WCI  32
BARABOO/DELLS  CLOUDY    40  39  97 NW12      29.08S WCI  32
LONE ROCK      CLOUDY    44  37  76 NW14G23   29.11F
MINERAL POINT  CLOUDY    39  37  93 NW13G20   29.10S WCI  32
MADISON        CLOUDY    45  44  97 W10       29.06S FOG
MIDDLETON      CLOUDY    46  46 100 W15       29.07S
WATERTOWN      CLOUDY    43  43 100 CALM      29.04S FOG
MONROE         CLOUDY    41  41 100 W17       29.08R FOG
JANESVILLE     FOG       45  45 100 W3        29.06R VSB 1/4
$$

WIZ051-052-058>065-066-070>072-241100-
SOUTHEAST WISCONSIN

CITY           SKY/WX    TMP DP  RH WIND       PRES   REMARKS
MILWAUKEE      CLOUDY    47  45  93 W3        29.04S FOG
WAUKESHA       DRIZZLE   43  43 100 W6        29.05S
MILWAUKEE/TIMM RAIN      45  43  93 SW3       29.05S
RACINE         CLOUDY    46  45  96 W7        29.06S FOG
BURLINGTON     CLOUDY    44  44 100 CALM      29.06R FOG
KENOSHA        CLOUDY    47  46  97 W9        29.05S
FOND DU LAC    LGT RAIN  43  41  93 W3        29.04S FOG
SHEBOYGAN      CLOUDY    43  42  97 W5        29.02F
WEST BEND      DRIZZLE   43  41  93 W5        29.03S
JUNEAU         LGT RAIN  42  42  99 CALM      29.05F VSB 1/2
$$

LSZ147-162-241100-
LAKE SUPERIOR

STATION/POSITION TIME  TEMP    WIND        PRES    WAVE
                       AIR SEA DIR/SP/G            HT/PER
                 (UTC) (F)     (DEG/KT/KT) (MB)    (FT/S)
DEVILS ISLAND    1000   38     330/ 19/ 21  988.4F
PORT WING        0940   36     310/ 13/ 16  989.8F
SAXON HARBOR     0900   38     310/ 11/ 14  988.1F
$$

LMZ867-665-643>646-241100-
LAKE MICHIGAN

STATION/POSITION TIME  TEMP    WIND        PRES    WAVE
                       AIR SEA DIR/SP/G            HT/PER
                 (UTC) (F)     (DEG/KT/KT) (MB)    (FT/S)
CHAMBERS ISLAND  0900   41     330/  5/  7  983.7F
N MID LAKE BUOY  0950   43 42  350/  4/  4  981.2F   2/ 6
NORTHPORT PIER   0900   41     310/  5/  6  982.7F
SISTER BAY       0928          360/  8/  8   N/A
KEWAUNEE LAKESHO 1000   42     300/  3/  5  981.8F
SHEBOYGAN LAKESH 1000   44 39  280/  5/  6  983.1F
PORT WASHINGTON  0900   44     260/  3/  7  984.4F
MILWAUKEE LAKESH 1000   46     230/  5/  7   N/A
S MID LAKE BUOY  0950   46 42  220/ 12/ 14  983.7S   1
KENOSHA   LAKESH 1000   47     250/  8/ 11  984.4S
$$

TC  - TEMPERATURE IN CELSIUS
VSB - VISIBILITY IN STATUTE MILES
WCI - WIND CHILL INDEX
HX  - HEAT INDEX



USA.gov is the U.S. government's official web portal to all federal, state and local government web resources and services.